This demonstration page uses our WeatherBlox Daily Observations layout. Learn more.

Left ArrowRight Arrow

34.16533, -84.80231

Hourly Observations for May 23, 2017

Temp ( °F °C ) Dew Point ( °F °C ) Humidity (%) Winds ( mph kmh ) Pressure ( in mb ) Visibility ( mi km ) Precip ( " mm )
12:53 am 00:53 Cloudy with Light Rain 67 19.4 67 19.4 100 100 Calm 29.92 1013 5 8 0.06 1.52
1:53 am 01:53 Cloudy with Light Rain 66 18.9 66 18.9 100 100 Calm 29.87 1012 6 10 0.02 0.51
2:01 am 02:01 Cloudy with Mist and Fog 66 18.9 66 18.9 100 100 Calm 29.91 1013 3 5 0.00 0.03
2:09 am 02:09 Cloudy with Mist and Fog 66 18.9 66 18.9 100 100 Calm 29.91 1013 2 3 0.00 0.03
2:18 am 02:18 Cloudy with Mist and Fog 66 18.9 66 18.9 100 100 Calm 29.91 1013 2 2 0.00 0.03
2:53 am 02:53 Cloudy with Mist and Fog 66 18.9 66 18.9 100 100 Calm 29.86 1011 2 2 0.00 0.03
2:59 am 02:59 Cloudy with Mist and Fog 66 18.9 66 18.9 100 100 Calm 29.91 1013 3 5 0.00 0.00
3:07 am 03:07 Cloudy with Light Rain 66 18.9 66 18.9 100 100 Calm 29.91 1013 5 8 0.00 0.03
3:14 am 03:14 Cloudy with Light Rain 66 18.9 66 18.9 100 100 Calm 29.88 1012 5 8 0.01 0.25
3:53 am 03:53 Cloudy with Rain 66 18.9 66 18.9 100 100 Calm 29.85 1011 3 4 0.05 1.27
3:56 am 03:56 Cloudy with Heavy Rain 66 18.9 66 18.9 100 100 Calm 29.88 1012 2 3 0.04 1.02
4:11 am 04:11 Cloudy with Rain 65 18.3 65 18.3 100 100 Calm 29.88 1012 2 3 0.15 3.81
4:22 am 04:22 Cloudy with Light Rain 65 18.3 65 18.3 100 100 Calm 29.88 1012 4 6 0.16 4.06
4:53 am 04:53 Cloudy 65 18.3 65 18.3 100 100 Calm 29.83 1010 10 16 0.21 5.33
5:37 am 05:37 Mostly Cloudy with Light Rain 65 18.3 65 18.3 100 100 Calm 29.85 1011 8 13 0.02 0.51
5:53 am 05:53 Mostly Cloudy with Light Rain 65 18.3 65 18.3 100 100 Calm 29.82 1010 9 14 0.03 0.76
6:09 am 06:09 Mostly Cloudy 65 18.3 65 18.3 100 100 Calm 29.83 1010 10 16 0.00 0.03
6:53 am 06:53 Cloudy 65 18.3 65 18.3 100 100 Calm 29.82 1010 7 11 0.00 0.03
7:49 am 07:49 Mostly Cloudy with Rain 64 18 64 18 100 100 Calm 29.85 1011 2 3 0.03 0.76
7:53 am 07:53 Cloudy with Rain 65 18.3 65 18.3 100 100 Calm 29.82 1010 2 3 0.04 1.02
7:58 am 07:58 Cloudy with Light Rain 65 18.3 65 18.3 100 100 Calm 29.85 1011 3 5 0.00 0.03
8:51 am 08:51 Cloudy 66 19 66 19 100 100 Calm 29.83 1010 9 14 0.00 0.03
8:53 am 08:53 Cloudy 66 18.9 66 18.9 100 100 SSE 3 6 29.80 1009 9 14 0.00 0.03
9:53 am 09:53 Cloudy 67 19.4 67 19.4 100 100 SSW 3 6 29.80 1009 10 16 0.01 0.25
10:15 am 10:15 Cloudy 67 19.4 67 19.4 100 100 VRB 3 6 29.83 1010 10 16 0.00 0.00
10:53 am 10:53 Cloudy 67 19.4 67 19.4 100 100 S 5 7 29.79 1009 9 14 0.00 0.00
11:53 am 11:53 Mostly Cloudy 68 20 68 20 100 100 S 5 7 29.78 1008 10 16 0.01 0.25
12:53 pm 12:53 Cloudy 69 20.6 68 20 96 96 Calm 29.75 1008 10 16 0.00 0.00
1:36 pm 13:36 Mostly Cloudy 70 21.1 68 20 93 93 S 7 11 29.77 1008 10 16 0.00 0.00
1:53 pm 13:53 Mostly Cloudy 71 21.7 67 19.4 87 87 VRB 3 6 29.72 1006 10 16 0.00 0.00
2:16 pm 14:16 Partly Cloudy 72 22.2 67 19.4 84 84 VRB 5 7 29.71 1006 10 16 0.00 0.00
2:53 pm 14:53 Mostly Sunny 75 23.9 67 19.4 76 76 VRB 6 9 29.69 1005 10 16 0.00 0.00
3:53 pm 15:53 Mostly Cloudy 76 24.4 66 18.9 72 72 VRB 3 6 29.68 1005 10 16 0.00 0.00
4:53 pm 16:53 Cloudy 70 21.1 70 21.1 100 100 S 8 13 29.67 1005 10 16 0.02 0.51
5:53 pm 17:53 Mostly Sunny 74 23.3 70 21.1 88 88 SSW 7 11 29.65 1004 10 16 0.00 0.00
6:53 pm 18:53 Cloudy 72 22.2 69 20.6 91 91 Calm 29.64 1004 10 16 0.00 0.00
7:48 pm 19:48 Cloudy with Nearby Thunderstorms 70 21 70 21 100 100 Calm 29.68 1005 10 16 0.00 0.00
7:53 pm 19:53 Cloudy with Nearby Thunderstorms 70 21.1 69 20.6 97 97 S 3 6 29.64 1004 10 16 0.00 0.00
8:28 pm 20:28 Cloudy with Thunderstorms 70 21.1 68 20 93 93 NW 3 6 29.68 1005 10 16 0.00 0.00
8:38 pm 20:38 Cloudy with Thunderstorms 67 19.4 67 19.4 100 100 undefined N/A 29.74 1007 3 5 0.09 2.29
8:40 pm 20:40 Cloudy with Strong Thunderstorms 65 18.3 65 18.3 100 100 undefined N/A 29.74 1007 2 3 0.21 5.33
8:48 pm 20:48 Cloudy with Strong Thunderstorms 63 17 63 17 100 100 VRB 6 9 29.74 1007 1 1 0.58 14.73
8:53 pm 20:53 Cloudy with Strong Thunderstorms 61 16.1 61 16.1 100 100 VRB 5 7 29.73 1007 1 1 0.77 19.56
9:01 pm 21:01 Cloudy with Strong Thunderstorms 61 16.1 61 16.1 100 100 NNW 5 7 29.74 1007 1 2 0.21 5.33
9:11 pm 21:11 Cloudy with Strong Thunderstorms 61 16.1 61 16.1 100 100 ENE 5 7 29.71 1006 2 3 0.28 7.11
9:19 pm 21:19 Cloudy with Thunderstorms 61 16.1 61 16.1 100 100 VRB 5 7 29.71 1006 6 10 0.29 7.37
9:36 pm 21:36 Cloudy with Nearby Thunderstorms 61 16.1 61 16.1 100 100 S 5 7 29.71 1006 10 16 0.31 7.87
9:46 pm 21:46 Cloudy with Thunderstorms 61 16.1 61 16.1 100 100 S 7 11 29.71 1006 10 16 0.31 7.87
9:53 pm 21:53 Cloudy with Thunderstorms 61 16.1 61 16.1 100 100 SSW 5 7 29.69 1005 10 16 0.31 7.87
10:01 pm 22:01 Cloudy with Nearby Thunderstorms 62 16.7 62 16.7 100 100 Calm 29.71 1006 10 16 0.01 0.25
10:39 pm 22:39 Mostly Cloudy with Light Rain 62 16.7 62 16.7 100 100 SSE 3 6 29.71 1006 10 16 0.03 0.76
10:53 pm 22:53 Cloudy 62 16.7 62 16.7 100 100 Calm 29.69 1005 10 16 0.03 0.76
11:53 pm 23:53 Partly Cloudy 62 16.7 62 16.7 100 100 Calm 29.66 1005 10 16 0.01 0.25

Powered by AerisWeather